Startpagina
METAR-TAF:

METAR-TAF

Vliegvelden :

Germiston, Zuid-Afrika

breedte: 26-14-33S, lengte: 028-09-04E, hoogte: 1671 m

Actueel weer

Dit bericht is 14 uur en het 21 minuten geleden gemaakt, om 15:00 UTC
Wind 12 kt uit het westen
Temperatuur 14°C
Vochtigheid 94%
Druk 1020 hPa
Zicht: 3000 m
Geheel bewolkt op 700 ft
regen

METAR: FAGM 101500Z 27012KT 3000 RA OVC007 14/13 Q1020

Tijdstip: 07:21 (05:21 UTC)


TAF: ontbreekt

Waarnemingen en weersverwachtingen van meer dan 4000 vliegvelden (METAR en TAF).

De beschikbare stations zijn de gele en rode punten op de kaart.

Ga met uw muis naar het station om de naam te zien.

Klik dan om waarnemingen en weersverwachtingen te zien.

kaart wijzigen: klik op de groene knoppen met een zwart kruis om in te zoomen, op de groene knop met een streepje om uit te zoomen of op de groene pijlen voor aangrenzende kaarten.


METAR-TAF: